EW3125 Weather Reports


time (UTC)temp
F
wind
direction
speed
knots
gust
knots
rain 1hr
in
rain 24hr
in
rain mn
in
humidity
%
barometer
mb
20260506204541 75 26 8.7 15.6 0.00 0.00 0.00 74 1010.7
20260506203041 77 13 7.0 12.2 0.00 0.00 0.00 73 1010.6
20260506201541 77 11 7.8 12.2 0.00 0.00 0.00 76 1010.4
20260506200042 77 28 7.8 13.9 0.00 0.00 0.00 76 1010.2
20260506194544 77 344 4.3 12.2 0.00 0.00 0.00 77 1010.2
20260506193050 77 31 6.1 9.6 0.00 0.00 0.00 75 1010.2
20260506191542 75 340 5.2 8.7 0.00 0.00 0.00 77 1010.3
20260506190041 75 348 4.3 8.7 0.00 0.00 0.00 77 1010.6
20260506184540 74 48 2.6 7.8 0.00 0.00 0.00 78 1010.5
20260506183042 73 55 5.2 9.6 0.00 0.00 0.00 78 1010.6
20260506181556 71 26 5.2 9.6 0.00 0.00 0.00 80 1010.5
20260506180043 70 18 6.1 11.3 0.00 0.00 0.00 80 1010.5
20260506174541 68 42 2.6 10.4 0.00 0.00 0.00 85 1010.9
20260506173105 66 63 3.5 12.2 0.00 0.00 0.00 85 1011.2
20260506171546 65 32 7.8 17.4 0.00 0.00 0.00 87 1011.5
20260506164542 70 11 12.2 20.9 0.00 0.00 0.00 79 1011.6
20260506163052 79 63 1.7 7.8 0.00 0.00 0.00 84 1011.3
20260506161542 78 65 4.3 7.0 0.00 0.00 0.00 87 1011.4
20260506160044 77 9 2.6 4.3 0.00 0.00 0.00 88 1011.5
20260506154605 76 36 2.6 4.3 0.00 0.00 0.00 89 1011.1
20260506153041 76 46 1.7 3.5 0.00 0.00 0.00 89 1010.6
20260506151542 76 65 0.9 2.6 0.00 0.00 0.00 89 1010.1
20260506150042 76 88 0.9 2.6 0.00 0.00 0.00 90 1009.9
20260506144550 76 106 0.9 2.6 0.00 0.00 0.00 90 1009.8
20260506143040 76 76 0.0 1.7 0.00 0.00 0.00 90 1010.0
20260506141542 76 84 0.0 1.7 0.00 0.00 0.00 90 1010.0
20260506140042 75 148 0.9 3.5 0.00 0.00 0.00 90 1009.3
20260506134542 75 130 1.7 3.5 0.00 0.00 0.00 91 1009.0
20260506133055 75 139 0.9 2.6 0.00 0.00 0.00 92 1008.9
20260506131541 74 149 0.9 2.6 0.00 0.00 0.00 92 1009.0
20260506130041 74 128 1.7 3.5 0.00 0.00 0.00 93 1008.8
20260506124544 74 128 0.9 2.6 0.00 0.00 0.00 93 1009.1
20260506123044 74 119 0.0 1.7 0.00 0.00 0.00 93 1009.0
20260506121542 74 99 0.9 2.6 0.00 0.00 0.00 93 1009.0
20260506120041 74 109 0.9 1.7 0.00 0.00 0.00 93 1008.9
20260506114548 74 147 0.0 1.7 0.00 0.00 0.00 92 1008.9
20260506113042 74 138 0.0 1.7 0.00 0.00 0.00 92 1008.7
20260506111543 74 161 0.9 2.6 0.00 0.00 0.00 92 1008.5
20260506110047 74 153 1.7 5.2 0.00 0.00 0.00 92 1008.6
20260506104606 74 163 2.6 4.3 0.00 0.00 0.00 92 1008.2
20260506103042 74 183 3.5 7.8 0.00 0.00 0.00 91 1008.3
20260506101600 74 186 3.5 11.3 0.00 0.00 0.00 91 1008.1
20260506100045 74 180 3.5 8.7 0.00 0.00 0.00 91 1008.0
20260506094543 74 196 4.3 8.7 0.00 0.00 0.00 91 1007.7
20260506093040 74 160 4.3 13.0 0.00 0.00 0.00 91 1007.6
20260506091541 74 210 5.2 10.4 0.00 0.00 0.00 91 1007.6
20260506090046 74 185 4.3 10.4 0.00 0.00 0.00 92 1007.6
20260506084545 74 180 4.3 8.7 0.00 0.00 0.00 92 1007.6
20260506083048 74 175 3.5 7.8 0.00 0.00 0.00 91 1007.7
20260506081541 74 173 3.5 8.7 0.00 0.00 0.00 91 1007.8
20260506073042 75 183 4.3 9.6 0.00 0.00 0.00 90 1007.9
20260506071545 75 177 4.3 9.6 0.00 0.00 0.00 91 1008.1
20260506061541 74 162 2.6 7.0 0.00 0.00 0.00 91 1008.3
20260506044542 75 175 3.5 6.1 0.00 0.00 0.00 89 1008.3
20260506043049 75 173 4.3 7.0 0.00 0.00 0.00 88 1008.5
20260506041547 76 192 4.3 7.8 0.00 0.00 0.00 88 1008.0
20260506040050 76 154 4.3 8.7 0.00 0.00 0.00 88 1008.0
20260506034541 76 159 4.3 10.4 0.00 0.00 0.00 87 1007.9
20260506033043 76 167 4.3 8.7 0.00 0.00 0.00 87 1007.5
20260506031541 76 166 3.5 8.7 0.00 0.00 0.00 86 1007.5
20260506030040 76 179 4.3 10.4 0.00 0.00 0.00 85 1007.3
20260506024546 77 158 4.3 7.0 0.00 0.00 0.00 84 1006.9
20260506023043 77 164 4.3 8.7 0.00 0.00 0.00 83 1007.0
20260506021552 78 149 4.3 11.3 0.00 0.00 0.00 83 1006.6
20260506020041 78 155 3.5 9.6 0.00 0.00 0.00 82 1006.6
20260506014541 79 144 1.7 7.0 0.00 0.00 0.00 79 1006.6
20260506013044 79 157 3.5 7.0 0.00 0.00 0.00 79 1006.4
20260506011548 80 141 1.7 3.5 0.00 0.00 0.00 79 1006.3
20260506010048 80 144 1.7 3.5 0.00 0.00 0.00 78 1006.0
20260506004540 81 137 1.7 5.2 0.00 0.00 0.00 77 1005.9
20260506003042 81 134 0.9 2.6 0.00 0.00 0.00 75 1005.7
20260506001541 82 140 1.7 6.1 0.00 0.00 0.00 74 1005.5
20260506000040 83 192 3.5 7.0 0.00 0.00 0.00 72 1005.6
20260505234605 83 153 3.5 8.7 0.00 0.00 0.00 72 1005.5
20260505233047 83 165 5.2 10.4 0.00 0.00 0.00 71 1005.4
20260505231542 83 148 5.2 12.2 0.00 0.00 0.00 72 1005.3
20260505230046 83 146 5.2 9.6 0.00 0.00 0.00 72 1005.3
20260505224541 84 192 4.3 9.6 0.00 0.00 0.00 71 1005.4
20260505223046 84 135 5.2 9.6 0.00 0.00 0.00 71 1005.4
20260505221543 83 194 5.2 10.4 0.00 0.00 0.00 72 1005.5
20260505220046 83 169 7.0 11.3 0.00 0.00 0.00 71 1005.6
20260505214552 83 184 5.2 13.0 0.00 0.00 0.00 71 1005.8
20260505213042 83 161 6.1 10.4 0.00 0.00 0.00 71 1005.9
20260505211549 83 169 6.1 12.2 0.00 0.00 0.00 71 1006.0
20260505210041 84 190 7.8 14.8 0.00 0.00 0.00 69 1006.2